Jackpot

Texas Poker Multi Jackpot System

Kini Telah hadir Jackpot SUPER ROYAL FLUSH

Kini Telah hadir Jackpot 2000 (khusus table VIP keatas).

Ikutilah global jackpot yang tersedia di system kami, dengan system jackpot terbaru dan pertama di indonesia, anda dapat membeli jackpot dengan harga 100 rupiah saja dan menangkan hadiahnya hingga puluhan juta rupiah.

Jackpot bukanlah suatu keharusan untuk dibeli, namun kami memberikan suatu fitur tambahan untuk member tercinta dari www.pokerwin88.biz.

Terdapat tiga pilihan harga jackpot yang bisa anda beli yaitu :100,500,1000 dan 2000(khusus table VIP Keatas) rupiah.

Hadiah dari Multi jackpot system www.pokerwin88.biz

  1. full house x 10 harga jackpot yang anda beli.
      (contoh:anda membeli 1000 maka:1000 X10 = 10.000)
  2. four of kind x 250 harga jackpot yang anda beli
      (contoh:anda membeli 1000 maka:1000 X250 = 250.000)
  3. Straight flush x 1200
      (contoh:anda membeli 1000 maka:1000 X1200 = 1.200.000)
  4. Royal flush x 10000 harga jackpot yang anda beli
      (contoh:anda membeli 1000 maka:1000 X10000 = 10.000.000)
  5. SUPER ROYAL FLUSH x 30000 harga jackpot yang anda beli
      (contoh:anda membeli 1000 maka:1000 X30000 = 30.000.000)

Kondisi kartu

  1. full house adalah kondisi kartu dimana kartu anda dan kartu tengah dengan total 7 kartu bisa mendapatkan nilai 5 kartu dengan kombinasi 1 tris(three of kind) dan 1 pair, contoh 3 kartu 10 dan 2 kartu 5
  2. Four of kind adalah kondisi kartu dimana kartu anda dan kartu tengah dengan total 7 kartu bisa mendapatkan nilai 5 kartu dengan kombinasi 4 kartu yang sama jumlah dan 1 kartu apapun juga contoh anda mendapatkan 4 buah kartu angka 3 dan 1 kartu apapun.
  3. Staright flush adalah kondisi kartu dimana kartu anda dan kartu tengah dengan total 7 kartu bisa mendapatkan nilai 5 kartu dengan kombinasi seri / staright dengan kembang yang sama contoh : urutan kartu dari angka 5, 6, 7, 8 , 9 10 dengan kembang yg sama misalnya as hati
  4. Royal flush adalah kondisi kartu dimana kartu anda dan kartu tengah dengan total 7 kartu bisa mendapatkan nilai 5 kartu dengan kombinasi seri / staright dengan kembang yang sama tetapi kartu tersebut haruslah dimulai dari 10. contoh 10, Queen, Jack, King dan aces dengan kembang yang sama
  5. Super Royal flush adalah kondisi kartu dimana Kedua kartu anda digabung dengan 3 kartu pertama meja haruslah royal flush. contoh kartu anda 10,Queen kembang sama dan 3 kartu pertama meja adalah Jack, King dan aces dengan kembang yang sama

Demikian adalah penjelasan dari Multi Jackpot www.pokerwin88.biz terima kasih dan selamat bermain salam hoki dari kami

Texas Poker Jackpot Winner

TOP SUPER ROYAL FLUSH
No.TanggalNamaPriceWin
119/06 22:51XK4MI2Super Royal flush3,000,000
219/06 22:24WINNER888Super Royal flush15,000,000
319/06 22:05F8A6BAF1Super Royal flush6,000,000
419/06 19:56ONANI026Super Royal flush6,000,000
519/06 19:21TUDDINSuper Royal flush6,000,000
TOP ROYAL FLUSH
No.TanggalNamaPriceWin
119/06 23:22MAL4NRoyal flush2,000,000
219/06 23:20E17319FDIE6C7BERoyal flush10,000,000
319/06 23:17ALLIKA07Royal flush5,000,000
419/06 23:12IND160Royal flush5,000,000
519/06 23:11YSSFLUSHRoyal flush5,000,000
TOP STRAIGHT FLUSH
No.TanggalNamaPriceWin
119/06 23:23ADERAHMAT8Straight Flush600,000
219/06 23:23BIPVLStraight Flush2,400,000
319/06 23:22XF5TTXSJMOStraight Flush600,000
419/06 23:21SONPOKAStraight Flush240,000
519/06 23:15R46IL5Straight Flush240,000
LATEST JACKPOT
No.TanggalNamaPriceWin
119/06 23:24ESJERUK26Full House5,000
219/06 23:24AKBAR1188Full House5,000
319/06 23:24BIDANGAN46Full House1,000
419/06 23:24B99TRFull House20,000
519/06 23:23QQIDB208Full House10,000
619/06 23:23NGENEH16Full House1,000
719/06 23:23E431C520Full House2,000
819/06 23:23BIQIS99Full House5,000
919/06 23:23JEGERCUYFull House2,000
1019/06 23:23BIMO46Full House10,000
1119/06 23:23GANASCFull House5,000
1219/06 23:23ZJTGT5UMMWFull House10,000
1319/06 23:23UZDF1CT9TDFull House2,000
1419/06 23:23ADERAHMAT8Straight Flush600,000
1519/06 23:23T4DFRANCO22Full House2,000
1619/06 23:23ZEDD01Full House5,000
1719/06 23:23NOVHAZACJKFour Of A Kind250,000
1819/06 23:23TEMPURA_99Full House2,000
1919/06 23:23OONAYFull House10,000
2019/06 23:23YUNI9898Full House10,000
2119/06 23:23BUL_2323Full House5,000
2219/06 23:23OSESIAMFull House5,000
2319/06 23:23LATISAARSIFull House2,000
2419/06 23:23AKSAY14Full House1,000
2519/06 23:23U1K7DPGRG8Full House5,000
2619/06 23:23CEWCEWFull House2,000
2719/06 23:23NOID2321Full House5,000
2819/06 23:23TWINHAWKFour Of A Kind50,000
2919/06 23:23DILANHOKIFull House1,000
3019/06 23:23MA5MAM2XMOFull House2,000
3119/06 23:23MIRA8777Full House5,000
3219/06 23:23XIIAOASIFull House500
3319/06 23:23ANJANI76Full House10,000
3419/06 23:23HONEY_VHIEFull House10,000
3519/06 23:23DAZKIYA10Full House2,000
3619/06 23:23UHK5CO62UHFull House2,000
3719/06 23:23IAWWARK5I0Full House2,000
3819/06 23:23E81B388CFull House2,000
3919/06 23:23CASTLE36Full House2,000
4019/06 23:23DIKACACA78Full House5,000
4119/06 23:23R3RBNB09ARFull House5,000
4219/06 23:23DAB48C83Full House2,000
4319/06 23:23MAWIREGARFull House10,000
4419/06 23:23MONACO88Full House2,000
4519/06 23:23AGUNG046Full House2,000
4619/06 23:23JAPANESE81Full House2,000
4719/06 23:23ASEAN4455Full House5,000
4819/06 23:23KEJILUWIFull House5,000
4919/06 23:23TARILEVIFull House2,000
5019/06 23:23FEMAO88Full House2,000

Domino Multi Jackpot System

Ikutilah global jackpot yang tersedia di system kami, dengan system jackpot terbaru dan pertama di indonesia, anda dapat membeli jackpot dengan harga 100 rupiah saja dan menangkan hadiahnya hingga puluhan juta rupiah.

Jackpot bukanlah suatu keharusan untuk dibeli, namun kami memberikan suatu fitur tambahan untuk member tercinta dari www.pokerwin88.biz.

Terdapat tiga pilihan harga jackpot yang bisa anda beli yaitu :100,500 dan 1000 rupiah.

Hadiah dari Multi jackpot system www.pokerwin88.biz

  1. Murni Kecil x 50 harga jackpot yang anda beli.
      (contoh:anda membeli 1000 maka:1000 X 50 = 50.000)
  2. Murni Besar x 50 harga jackpot yang anda beli
      (contoh:anda membeli 1000 maka:1000 X 50 = 50.000)
  3. BALAK x 100 harga jackpot yang anda beli
      (contoh:anda membeli 1000 maka:1000 X 100 = 100.000)
  4. ENAM DEWA x 6666 harga jackpot yang anda beli
      (contoh:anda membeli 1000 maka:1000 X 6666 = 6.666.000)

Demikian adalah penjelasan dari Multi Jackpot www.pokerwin88.biz terima kasih dan selamat bermain salam hoki dari kami

Domino Jackpot Winner

TOP ENAM DEWA
No.TanggalNamaPriceWin
119/06 22:17MF92murni enam666,600
219/06 22:07SEHAH66murni enam3,333,000
319/06 15:29JEEG99murni enam666,600
419/06 14:55ALBERT80murni enam666,600
519/06 12:56RIZKII01murni enam6,666,000
TOP BALAK
No.TanggalNamaPriceWin
119/06 23:23ROJACKSEbalak100,000
219/06 23:21WINDAQ7777balak100,000
319/06 23:21ABCDEFZbalak10,000
419/06 23:17SALWAID1balak100,000
519/06 23:16DESTEN123balak50,000
LATEST JACKPOT
No.TanggalNamaPriceWin
119/06 23:23ASBAK_757murni kecil50,000
219/06 23:23RERE1984murni kecil50,000
319/06 23:23AFL47UNmurni kecil50,000
419/06 23:23RUDHY28murni kecil25,000
519/06 23:23ROJACKSEbalak100,000
619/06 23:23ARANAJmurni besar5,000
719/06 23:23DHEFA33murni kecil25,000
819/06 23:23ONLINE2016murni kecil25,000
919/06 23:23RERE1984murni besar50,000
1019/06 23:22MAMII9191murni besar50,000
1119/06 23:22RIMRAIY97murni kecil50,000
1219/06 23:22IYAANK24murni besar25,000
1319/06 23:21WINDAQ7777balak100,000
1419/06 23:21ABCDEFZbalak10,000
1519/06 23:21BALIKIN1Mlucky9925,000
1619/06 23:20MUIN83murni kecil5,000
1719/06 23:19YOAN23murni kecil50,000
1819/06 23:19KANYUT92murni kecil50,000
1919/06 23:19BL0Hmurni besar50,000
2019/06 23:18GBLUESmurni kecil50,000
2119/06 23:18SUNDIE99murni besar50,000
2219/06 23:17SALWAID1balak100,000
2319/06 23:17SASUKEZmurni besar50,000
2419/06 23:17KUDANIL35murni kecil50,000
2519/06 23:17SMOANT37murni besar25,000
2619/06 23:17NUSFERATUmurni besar5,000
2719/06 23:16DESTEN123balak50,000
2819/06 23:16EFICK11murni besar50,000
2919/06 23:16TOMMYGBYmurni kecil25,000
3019/06 23:16SMPK02murni kecil25,000
3119/06 23:16SER4N9_601murni kecil50,000
3219/06 23:16WIJIEmurni besar50,000
3319/06 23:16LOKCAY789murni besar50,000
3419/06 23:15MOCH_EL_Dmurni besar25,000
3519/06 23:14DWBTRIKY43murni besar50,000
3619/06 23:14J3FRY99murni besar5,000
3719/06 23:13THE_3_LIONmurni kecil25,000
3819/06 23:13ECENG69lucky9910,000
3919/06 23:13KUPU1balak100,000
4019/06 23:13EJWQBPCCSQbalak10,000
4119/06 23:12TUNGSI987murni kecil5,000
4219/06 23:12TOMYFINAmurni kecil50,000
4319/06 23:12BSBBB16murni besar25,000
4419/06 23:11DA0E80EJSUmurni kecil5,000
4519/06 23:10GIOKWmurni kecil5,000
4619/06 23:10AGENT88556balak100,000
4719/06 23:10DOEL223murni kecil25,000
4819/06 23:10LUCKYY_303murni kecil25,000
4919/06 23:09HIIPI3murni kecil5,000
5019/06 23:09FF688377murni kecil25,000

Ceme Multi Jackpot System

Jackpot dilihat dari gabungan kartu pemain dengan kartu bandar. Bandar harus membeli jackpot sebanyak jumlah player yang sedang duduk. Sebagai contoh bila terdapat 3 pemain duduk bermain, dan bandar memutuskan untuk membeli jackpot Rp 1.000, maka pada periode tersebut bandar akan membeli jackpot sebanyak 3xRp1.000 = Rp3.000.

Jackpot bukanlah suatu keharusan untuk dibeli, namun kami memberikan suatu fitur tambahan untuk member tercinta dari www.pokerwin88.biz.

Terdapat tiga pilihan harga jackpot yang bisa anda beli yaitu :100,500 dan 1000 rupiah.

Hadiah dari Multi jackpot system www.pokerwin88.biz

  1. Murni Kecil x 50 harga jackpot yang anda beli.
      (contoh:anda membeli 1000 maka:1000 X 50 = 50.000)
  2. Murni Besar x 50 harga jackpot yang anda beli
      (contoh:anda membeli 1000 maka:1000 X 50 = 50.000)
  3. BALAK x 200 harga jackpot yang anda beli
      (contoh:anda membeli 1000 maka:1000 X 200 = 200.000)
  4. ENAM DEWA x 6666 harga jackpot yang anda beli
      (contoh:anda membeli 1000 maka:1000 X 6666 = 6.666.000)

Demikian adalah penjelasan dari Multi Jackpot www.pokerwin88.biz terima kasih dan selamat bermain salam hoki dari kami

Ceme Jackpot Winner

TOP ENAM DEWA
No.TanggalNamaPriceWin
119/06 23:15WSN888murni enam666,600
219/06 22:57PLUS_TRUSmurni enam6,666,000
319/06 22:57ABEBIHOKYmurni enam6,666,000
419/06 22:56TOMOLI209murni enam6,666,000
519/06 22:56PC0ZCFHZ4Zmurni enam3,333,000
TOP BALAK
No.TanggalNamaPriceWin
119/06 23:23DWBTEGOT78balak200,000
219/06 23:22FA580ECBbalak200,000
319/06 23:22KALMEN89balak20,000
419/06 23:21SNI37018balak20,000
519/06 23:21HESTY90balak20,000
LATEST JACKPOT
No.TanggalNamaPriceWin
119/06 23:24WARNE9murni kecil50,000
219/06 23:23FA580ECBmurni kecil50,000
319/06 23:23SOL1H1Nmurni kecil5,000
419/06 23:23MUCI1202murni kecil50,000
519/06 23:23PEJEBLACKmurni besar25,000
619/06 23:23SIPIT11murni besar50,000
719/06 23:23ASSIQUIImurni kecil50,000
819/06 23:23BABUSEXmurni besar50,000
919/06 23:23YAHUT09murni kecil5,000
1019/06 23:23ADHY044murni kecil25,000
1119/06 23:23DOGIRRRRmurni besar50,000
1219/06 23:23EFAKTAmurni kecil50,000
1319/06 23:23DWBTEGOT78balak200,000
1419/06 23:23SOAS999murni kecil25,000
1519/06 23:22SUHOYOmurni besar50,000
1619/06 23:22YUSUFF9999murni besar50,000
1719/06 23:22ILH4M_T3L0murni besar50,000
1819/06 23:22FA580ECBbalak200,000
1919/06 23:22KALMEN89balak20,000
2019/06 23:22MUCI1202murni kecil50,000
2119/06 23:22PANTEK010murni besar50,000
2219/06 23:22INDRA6969murni kecil50,000
2319/06 23:228121BISAmurni kecil50,000
2419/06 23:22MRSRIRIRImurni kecil50,000
2519/06 23:22YAYAYT46murni kecil5,000
2619/06 23:22PEJEBLACKmurni besar25,000
2719/06 23:22DIKASEEDEDmurni besar25,000
2819/06 23:22ZAZA_122murni besar5,000
2919/06 23:22A35955A5murni besar50,000
3019/06 23:22GIGOLOQIUmurni besar50,000
3119/06 23:21SNI37018balak20,000
3219/06 23:21HESTY90balak20,000
3319/06 23:21HANSYAH233balak100,000
3419/06 23:21BGMHBM88murni kecil50,000
3519/06 23:21WHATONmurni besar50,000
3619/06 23:21ZAKFAmurni besar5,000
3719/06 23:21GARONGKALImurni besar50,000
3819/06 23:21HANYEBB11balak100,000
3919/06 23:21HANSYAH233murni kecil25,000
4019/06 23:21PAHE65murni besar50,000
4119/06 23:21BUTEAKKmurni kecil50,000
4219/06 23:21ZO0M09murni kecil5,000
4319/06 23:20F411M1balak200,000
4419/06 23:20JMP19murni besar50,000
4519/06 23:20INMMOERQRKmurni kecil50,000
4619/06 23:20B52KDUIT892murni kecil25,000
4719/06 23:20DEVALO22murni kecil50,000
4819/06 23:20MAGNET34murni besar50,000
4919/06 23:20PEGASUS798murni besar50,000
5019/06 23:20SNI37018murni kecil5,000